Weather in Pervomayevka

Russia / Republic of Buryatia     52°01′56″N   108°24′01″E
temp.,
°C
wind,
m/s
gust,
m/s
humid.,
%
clouds,
%
prec.,
mm/h
press.,
hPa
HPBL,
m
27 january, thu
thu2723:00−25sw019994 0.0 10419
02:00−26s019999 0.1 104110
05:00−24s0010096 0.0 104013
08:00−27sw01100100 0.1 104212
11:00−22sw119388 0.0 1041146
14:00−17sw128263 0.0 1038317
17:00−19sw009449 0.0 10399
20:00−25ssw019946 0.0 10429
28 january, fri
fri2823:00−26ssw119979 0.0 10439
02:00−27ssw019995 0.0 10449
05:00−28ssw0110096 0.0 10449
08:00−29ssw0110098 0.1 10459
11:00−23ssw019593 0.0 1044121
14:00−18wsw118214 0.0 1040258
17:00−20n009425 0.0 10399
20:00−25se019958 0.0 10419
29 january, sat
sat2923:00−27sw019989 0.0 10429
02:00−28s019997 0.1 10429
05:00−29s0110097 0.0 10419
08:00−30ssw0110096 0.1 10429
11:00−24ssw119496 0.0 1040137
14:00−18sw128258 0.0 1037338
17:00−20s119447 0.0 10369
20:00−26sw119762 0.0 10409
30 january, sun
sun3023:00−28sw119870 0.0 10419
02:00−29ssw119984 0.0 10429
05:00−29ssw119997 0.0 104210
08:00−29s119997 0.1 104310
11:00−23ssw129397 0.0 1042157
14:00−17sw238296 0.1 1038435
17:00−19ssw119586 0.0 10389
20:00−25sw119989 0.0 10419
31 january, mon
mon3123:00−26sw119997 0.0 104112
02:00−27ssw0110098 0.1 104110
05:00−28sw01100100 0.1 104110
08:00−28e01100100 0.1 104110
11:00−24sw119399 0.0 1040144
14:00−19wsw128498 0.1 1037302
17:00−20w019378 0.0 10369
20:00−25ssw019974 0.0 10399